Location: Newark
(48.3453°N, 0.5589°E)
Time: 23:07:27
(UTC+00:00)

A-11 Canister half - Pass Details

Date: 15 December 2019
Orbit: 1517 x 1683 km, 47.2° (Epoch: 22 January)

Event Time Altitude Azimuth Distance (km) Brightness Sun altitude
Rises 10:09:57 0° 216° (SW) 4,695 12.0 14.8°
Reaches altitude 10° 10:13:09 10° 210° (SSW) 3,733 11.6 15.0°
Maximum altitude 10:21:52 43° 143° (SE) 2,106 11.0 15.6°
Drops below altitude 10° 10:30:54 10° 76° (ENE) 3,867 11.2 16.1°
Sets 10:34:15 0° 70° (ENE) 4,878 11.6 16.3°
